Temperature
16 16 16 17 17 18 19 21 23 22 22 21 21 21 20 19 18 16 14 14 14 14 14 15 15 15 15 15 15 15 15 15 15 15 15 15 15 15 15 15 15 15 15 15 15 15 15 15 15
16 16 16 17 17 18 20 21 22 21 21 20 20 20 20 18 16 15 14 14 14 14 14 14 15 15 15 15 15 15 15 15 15 15 15 15 15 15 15 15 15 15 15 15 15 15 15 15 15
16 16 17 17 18 19 20 21 21 20 20 20 20 19 18 16 15 14 14 14 14 14 14 14 14 14 14 15 15 15 15 15 15 15 15 15 15 15 15 15 15 15 15 15 15 15 15 15 15
15 16 17 17 18 20 20 20 20 19 19 19 19 18 16 14 14 13 13 13 13 13 13 14 14 14 14 14 14 14 14 14 15 15 15 15 15 15 15 15 15 15 15 15 15 15 15 15 14
15 17 17 17 18 20 20 20 20 19 19 19 19 17 14 14 13 13 13 13 13 13 13 13 14 14 14 14 14 14 14 14 14 14 14 14 14 14 15 15 14 14 14 14 14 14 14 14 14
16 17 16 17 19 20 20 20 19 19 19 19 18 17 13 13 13 13 13 13 13 13 13 13 13 13 13 14 14 14 14 14 14 14 14 14 14 14 14 14 14 14 14 14 14 14 14 14 14
16 16 16 18 18 19 19 19 18 18 18 17 17 16 13 12 13 12 12 12 12 12 13 13 13 13 13 13 13 13 13 14 14 14 14 14 14 14 14 14 14 14 14 14 14 14 14 14 14
15 16 17 17 18 18 18 18 17 17 17 16 16 15 13 12 12 12 12 12 12 12 12 12 12 12 13 13 13 13 13 13 13 13 13 13 14 14 14 14 14 14 14 14 14 14 14 14 14
15 15 15 17 17 17 17 17 16 16 15 15 14 13 12 12 12 11 11 11 12 12 12 12 12 12 12 12 12 12 13 13 13 13 13 13 13 13 13 13 14 14 14 14 14 14 14 14 13
15 13 15 17 17 16 16 16 16 15 15 14 13 12 12 12 11 11 11 11 11 11 11 11 12 12 12 12 12 12 12 12 12 13 13 13 13 13 13 13 13 13 13 13 13 13 13 13 13
15 14 15 16 15 15 15 15 15 15 14 14 13 12 11 11 11 10 11 11 11 11 11 11 11 11 11 11 11 11 12 12 12 12 12 12 12 12 12 12 13 13 13 13 13 13 13 13 12
14 15 15 15 14 14 14 14 14 14 13 13 12 12 11 10 10 10 10 10 10 10 10 10 11 11 11 11 11 11 11 11 11 11 12 12 12 12 12 12 12 12 12 12 12 12 12 12 12
14 14 14 14 13 13 13 13 13 12 12 12 11 11 10 10 10 10 10 10 10 10 10 10 10 10 11 11 11 11 11 11 11 11 11 11 11 11 11 12 12 12 12 12 12 12 12 12 12
13 13 13 13 13 13 12 12 12 12 12 11 11 10 10 10 9 9 9 9 9 10 10 10 10 10 10 10 10 10 10 10 10 10 11 11 11 11 11 11 11 11 12 12 12 12 12 12 12
13 12 12 13 13 13 12 11 11 12 11 11 11 10 9 9 9 9 9 9 9 9 9 9 9 9 10 10 10 10 10 10 10 10 10 10 10 10 10 10 11 11 11 11 11 11 11 11 11
12 12 11 13 13 12 11 10 12 12 11 11 10 10 9 9 8 8 8 8 8 9 9 9 9 9 9 9 9 9 9 9 9 9 9 9 10 10 10 10 10 10 10 10 11 11 11 11 11
11 11 12 12 13 12 11 10 11 11 11 10 10 9 9 8 8 8 8 8 8 8 8 8 8 8 9 9 9 9 9 9 9 9 9 9 9 9 9 9 9 10 10 10 10 10 10 10 10
11 11 12 12 12 12 11 10 10 11 10 10 10 9 8 8 8 7 7 7 8 8 8 8 8 8 8 8 8 8 8 8 8 8 8 8 8 9 9 9 9 9 9 9 9 9 9 10 10
11 11 11 11 12 11 10 10 10 10 10 10 10 9 8 8 7 7 7 7 7 7 7 7 7 7 7 7 7 7 7 8 8 8 8 8 8 8 8 8 8 8 8 8 8 9 9 9 9
11 10 10 11 11 11 9 9 10 10 10 10 9 9 8 7 7 6 6 6 6 6 6 6 7 7 7 7 7 7 7 7 7 7 7 7 7 7 7 7 8 8 8 8 8 8 8 8 8
10 10 10 9 10 10 9 8 9 10 10 9 9 8 8 7 6 6 5 5 6 6 6 6 6 6 6 6 6 6 6 6 6 6 7 7 7 7 7 7 7 7 7 7 7 7 7 7 7
9 10 10 9 8 7 9 7 9 9 9 8 8 8 7 6 6 5 5 5 5 5 5 5 5 5 5 5 6 6 6 6 5 6 6 6 6 6 6 6 7 7 7 7 7 7 7 7 7
9 9 9 9 8 7 8 7 8 9 8 7 7 7 7 6 5 5 5 5 5 5 5 5 5 5 5 5 5 5 5 5 5 5 5 5 6 6 6 6 6 6 6 6 6 6 6 6 6
9 8 8 8 7 6 7 7 7 8 8 7 7 7 6 6 5 5 5 4 4 4 4 5 4 4 4 4 4 4 4 4 4 4 5 5 5 5 5 5 5 5 5 5 6 6 6 6 5
8 7 6 6 6 6 8 8 7 8 8 7 7 6 6 5 5 4 4 4 4 4 4 4 4 4 4 4 4 4 4 4 4 4 4 4 4 4 4 4 5 5 5 5 5 5 5 5 5
7 7 6 6 6 7 8 7 7 7 7 7 7 6 5 5 4 4 4 3 3 3 3 3 3 3 3 3 3 3 3 3 3 3 3 4 3 3 4 4 4 4 4 4 4 4 4 4 4
7 6 7 6 6 6 7 7 7 7 6 6 6 6 5 5 4 4 3 3 3 3 3 3 3 3 3 3 3 3 3 3 3 3 3 3 3 3 3 3 3 3 3 3 3 3 4 4 4
6 6 6 5 5 6 7 7 6 6 6 5 5 5 5 4 4 3 3 3 2 2 2 2 2 2 2 2 2 2 2 2 2 2 2 2 2 2 2 3 3 3 3 3 3 3 3 3 3
5 6 5 5 5 6 6 6 7 6 6 5 5 5 4 4 3 3 2 2 2 2 2 2 2 2 2 2 2 2 2 2 2 2 2 2 2 2 2 2 2 2 2 2 2 2 2 2 2
5 6 5 4 5 5 5 5 6 5 5 5 4 4 4 3 3 2 2 2 1 1 1 1 1 1 1 1 1 1 1 1 1 1 1 1 1 1 1 1 1 2 2 2 2 2 2 2 2
Wind_Speed
13 11 6 3 3 5 8 5 2 2 4 6 7 5 5 6 5 5 3 6 6 5 6 7 7 7 7 7 7 7 7 6 6 6 6 7 7 7 8 9 9 8 9 9 9 10 10 11 11
11 7 4 3 4 6 6 4 1 3 6 5 4 3 2 6 6 6 4 4 5 6 7 7 8 8 7 6 7 7 6 6 6 6 6 6 6 7 7 8 8 8 8 9 9 9 9 10 10
9 6 4 4 5 6 3 3 4 7 7 3 2 4 4 5 6 4 4 4 6 7 8 9 9 8 7 7 7 6 6 6 6 5 5 6 6 6 7 7 7 8 8 8 8 8 9 9 9
4 3 4 5 9 6 2 3 6 5 3 2 2 3 5 6 5 5 5 5 6 7 9 9 10 9 9 8 7 7 6 5 5 5 5 6 6 7 6 6 7 7 7 8 8 8 8 8 8
3 3 5 7 10 5 1 3 4 1 2 2 1 2 4 5 8 7 5 5 6 6 8 9 10 10 9 8 8 7 7 6 5 5 5 5 6 6 6 6 6 6 7 7 7 7 7 8 7
3 3 5 8 7 4 2 2 1 1 0 2 1 1 4 6 7 5 4 5 6 6 8 8 9 9 9 9 8 8 7 6 5 5 4 5 5 5 6 6 6 6 7 7 7 7 7 7 6
3 3 6 8 6 3 1 2 0 1 1 1 2 1 5 5 5 4 4 5 6 7 7 7 7 7 7 8 8 8 7 7 6 4 3 4 4 4 5 5 5 6 6 6 6 6 6 6 5
3 4 6 7 6 3 2 2 2 3 2 4 4 2 3 4 4 3 4 5 5 6 5 5 5 5 5 6 7 7 7 6 6 5 4 2 3 4 4 4 5 5 6 5 6 6 5 5 5
3 4 5 5 4 1 4 2 2 3 2 2 3 4 5 6 5 4 4 4 4 5 4 4 4 4 4 4 5 5 5 5 5 4 4 2 2 3 3 4 4 5 6 5 5 5 5 5 4
3 4 4 3 4 3 3 2 2 0 1 1 2 6 6 6 4 3 2 2 3 3 3 3 3 3 4 4 4 3 3 4 5 5 5 4 3 3 3 3 4 5 5 5 5 5 5 4 3
3 4 3 3 5 4 2 2 1 2 3 1 2 4 5 4 3 1 1 2 2 2 3 3 2 3 3 3 3 3 4 4 4 6 6 5 3 3 4 3 2 3 4 3 4 3 3 3 3
4 5 4 3 2 2 2 2 3 3 2 3 4 4 4 3 2 1 1 2 2 2 2 2 2 2 3 3 3 4 3 3 4 4 5 4 3 3 3 3 2 1 2 2 2 2 2 2 3
6 5 4 2 1 1 2 4 3 3 1 2 4 3 3 2 1 1 2 2 3 3 3 2 2 2 3 3 3 3 3 3 4 4 5 5 4 3 3 3 3 2 2 1 1 2 1 2 2
2 3 3 3 2 3 4 5 4 4 2 1 3 3 2 1 1 1 2 2 2 3 3 2 2 2 3 2 2 2 3 4 4 4 4 5 4 4 3 2 3 3 2 1 1 1 1 1 2
2 4 5 6 6 3 2 6 7 5 3 3 3 3 3 1 1 1 1 1 2 2 3 2 2 3 3 2 3 3 4 4 4 4 4 4 5 4 3 2 2 3 3 2 1 1 1 1 2
5 5 5 5 6 5 4 7 3 4 4 5 3 2 2 2 1 2 2 2 2 3 3 3 3 3 3 2 2 3 4 3 3 4 4 4 4 4 3 3 2 3 3 2 1 0 1 1 1
6 6 7 4 7 5 6 6 3 3 3 3 3 3 2 2 2 2 3 3 3 3 3 3 3 3 3 2 2 3 3 3 4 4 4 4 4 4 3 3 3 4 3 2 1 1 1 1 1
4 5 6 5 4 5 6 7 4 4 4 4 3 3 3 2 2 2 3 4 3 3 3 3 3 3 2 2 1 1 2 2 4 4 4 4 4 4 4 3 3 3 2 2 2 2 1 1 1
7 8 9 7 2 3 7 9 8 5 5 4 4 4 3 3 3 3 3 4 3 4 4 4 3 2 2 1 1 1 1 1 1 3 4 4 4 4 4 2 2 2 1 2 1 1 1 1 1
9 9 9 6 1 3 6 10 8 7 7 6 5 4 3 3 3 3 3 3 4 4 4 3 3 2 2 1 0 0 0 0 1 2 3 4 4 3 2 2 1 1 1 2 1 1 0 0 1
8 8 7 5 5 5 6 7 9 6 6 4 4 3 4 4 3 3 2 3 3 3 3 2 2 2 2 1 1 0 0 0 1 1 0 2 2 3 3 2 1 1 1 1 1 0 0 1 0
7 5 5 4 3 4 4 5 5 5 5 5 4 3 3 3 3 3 2 2 2 2 2 2 2 2 2 2 1 1 0 0 1 1 0 1 2 2 2 2 1 1 0 1 1 1 1 1 1
4 4 5 5 5 5 6 5 5 5 5 5 5 4 4 4 3 3 3 2 2 2 2 2 2 1 2 1 1 0 0 0 0 0 0 0 0 1 2 1 1 0 0 1 1 1 1 1 1
3 3 5 4 3 6 8 7 4 3 5 6 6 5 4 4 3 3 3 3 2 2 2 2 2 1 1 1 1 1 1 1 0 1 1 1 1 0 1 1 0 0 1 1 1 2 2 2 2
2 1 1 2 4 6 6 5 4 2 2 5 7 6 4 4 3 3 3 2 2 2 2 1 1 1 1 1 1 1 2 1 1 1 1 1 1 1 1 1 1 1 1 1 1 2 3 3 3
5 4 3 3 3 2 2 5 2 1 3 5 5 6 4 4 3 3 3 2 1 1 1 1 1 1 1 1 1 1 2 1 1 1 1 2 2 2 2 1 1 1 2 2 2 2 3 3 3
2 4 3 3 4 4 4 2 1 2 4 5 4 4 4 3 3 2 2 1 1 1 1 1 1 2 1 1 1 2 2 2 2 2 2 2 2 2 2 2 2 2 2 3 3 3 3 3 4
3 2 1 3 3 4 4 4 3 4 5 5 5 3 3 2 2 1 1 1 0 0 1 1 1 2 2 1 2 2 2 2 2 2 3 2 2 2 2 2 3 3 3 3 4 3 3 3 4
3 3 3 3 3 3 3 2 1 2 3 5 4 2 2 2 2 1 1 1 1 1 1 1 2 2 2 2 2 2 2 2 2 2 3 3 2 2 3 3 4 4 4 4 4 4 4 4 4
3 4 3 3 4 3 3 4 2 3 3 3 2 1 2 2 1 1 1 1 1 1 2 2 2 2 2 2 2 2 2 2 2 3 3 3 3 3 3 3 3 4 4 4 4 4 5 5 5
Wind_Direction
302 280 256 256 244 232 242 245 258 73 51 42 28 12 17 26 29 95 103 42 52 67 79 70 67 68 72 72 71 75 82 90 99 108 113 113 112 110 108 107 107 109 108 106 104 103 100 98 95
294 285 263 243 242 240 238 221 200 62 66 53 35 0 21 70 68 89 69 32 52 62 73 63 65 65 69 74 75 78 80 81 87 97 103 110 112 110 108 106 105 106 109 108 106 107 103 99 99
276 269 257 238 235 246 266 55 76 70 67 53 46 21 23 55 65 72 55 37 55 61 66 64 65 66 66 68 68 68 74 77 80 92 100 105 108 111 112 109 107 106 109 111 109 110 109 105 104
271 239 242 246 248 254 290 57 71 83 79 43 45 84 72 43 50 64 61 54 63 63 66 69 68 67 66 64 63 60 66 73 77 84 103 112 109 106 107 107 107 109 107 108 108 109 113 112 112
244 245 236 239 247 250 327 61 71 86 146 138 78 71 78 65 65 71 64 59 66 62 64 72 70 65 64 64 63 61 60 66 74 76 83 104 115 112 105 105 111 113 114 111 111 113 113 116 117
253 245 242 239 242 229 160 87 65 286 283 101 51 39 95 83 66 64 66 64 67 66 65 65 68 65 61 61 61 62 59 59 65 73 81 96 105 120 117 112 114 115 112 117 116 118 118 114 117
266 258 254 262 260 254 104 73 321 298 331 30 8 37 112 89 74 67 74 72 68 66 63 58 56 63 64 60 57 58 56 56 52 55 76 103 109 113 125 121 119 121 119 117 120 121 125 126 124
291 281 259 259 259 263 58 53 25 2 357 28 16 24 96 93 85 75 76 70 66 66 67 58 55 58 70 71 60 54 52 50 50 44 40 85 124 122 125 127 122 126 128 123 124 123 132 138 141
286 259 255 265 273 12 77 34 30 30 27 25 36 52 80 100 100 89 79 67 60 59 59 58 51 50 62 76 66 53 49 44 46 43 29 60 90 96 109 123 125 129 134 134 132 130 132 141 151
231 243 254 329 350 15 51 13 4 189 206 207 92 86 96 105 105 104 99 90 71 56 57 53 45 34 51 66 73 59 54 44 41 40 28 28 44 61 89 120 132 135 132 142 145 142 139 141 147
220 244 282 337 16 18 359 336 319 263 256 236 128 116 111 104 106 113 112 90 90 76 61 54 45 38 47 53 65 56 53 45 42 44 40 31 34 45 62 78 104 127 137 137 145 144 146 138 124
244 263 282 306 6 353 316 303 303 279 316 41 77 95 112 117 124 111 62 52 66 68 68 64 45 49 43 53 57 57 53 44 48 44 50 40 33 38 41 44 44 90 106 127 141 121 124 131 118
237 262 274 279 321 278 278 268 278 282 312 30 97 105 125 137 124 93 64 55 59 63 73 83 63 54 48 49 47 55 47 50 58 54 50 46 37 29 37 37 29 34 56 74 124 124 132 131 121
268 285 278 251 247 248 248 259 252 240 177 184 157 147 143 133 115 73 57 46 48 53 66 76 72 61 56 59 60 63 54 57 59 54 48 50 44 33 29 27 17 17 16 27 81 120 143 129 121
266 259 251 228 220 205 248 261 232 211 190 200 178 153 139 124 96 75 60 53 56 58 60 68 83 62 61 61 54 57 53 59 60 57 52 47 46 40 35 32 19 8 3 17 48 78 85 131 121
231 236 238 205 196 180 191 255 235 158 187 208 184 147 130 126 102 79 72 58 55 65 63 63 64 59 56 61 61 54 53 56 58 58 55 46 45 44 45 35 15 7 15 26 15 171 143 147 137
217 234 244 227 185 178 204 252 211 152 187 204 184 166 157 130 96 75 72 68 59 65 72 72 65 59 50 45 65 72 62 62 56 53 49 44 46 46 51 46 24 23 20 21 20 9 135 134 137
248 256 264 257 189 201 228 249 240 207 202 208 190 185 173 159 132 90 82 77 65 68 73 75 73 59 43 35 47 61 71 66 57 52 45 48 41 40 47 48 41 35 36 31 25 18 18 109 139
279 276 276 278 252 228 243 255 249 227 217 222 210 196 179 152 119 97 87 86 76 72 69 65 69 58 50 44 44 51 53 45 48 46 45 51 50 41 43 37 49 48 67 61 42 22 24 41 73
268 266 273 289 257 253 262 268 259 237 223 213 211 189 165 137 110 101 87 81 71 68 62 65 61 59 55 30 355 3 138 131 79 50 44 40 46 48 42 44 53 64 90 62 51 43 64 23 74
259 257 262 275 301 263 268 273 242 224 203 187 185 173 149 142 124 105 89 76 70 58 57 59 60 52 43 25 36 36 68 106 45 26 23 31 38 42 36 36 43 57 113 141 145 81 167 178 12
266 280 278 267 266 262 236 276 247 204 188 173 174 165 146 131 121 119 110 91 83 76 65 59 63 60 43 29 35 62 97 151 237 217 206 24 44 51 38 37 51 49 151 186 201 169 199 147 181
266 296 275 253 251 268 238 251 252 193 195 186 174 164 147 140 140 139 127 106 88 81 79 63 49 57 58 39 11 333 193 240 305 213 220 240 13 47 38 34 49 16 282 213 193 204 209 186 189
292 287 270 247 250 254 225 219 259 211 201 182 169 152 143 140 137 127 109 98 82 72 69 61 44 32 43 33 3 338 312 288 295 298 250 263 263 301 8 3 6 322 280 252 223 211 223 222 221
238 236 272 222 216 240 209 206 239 211 150 163 163 150 139 131 129 120 106 90 68 59 49 37 18 354 22 29 349 317 302 303 272 259 253 256 258 255 244 270 266 264 264 266 256 221 224 220 219
223 212 218 245 250 277 225 223 207 138 125 130 134 137 140 144 140 130 124 116 89 54 37 24 326 312 321 311 292 294 290 266 269 287 278 257 251 245 245 254 251 238 231 240 241 229 232 226 225
241 228 244 272 277 268 236 214 200 155 134 136 140 149 160 156 138 127 114 107 84 37 345 311 312 305 301 281 276 275 279 277 276 279 277 278 270 262 251 254 257 247 232 228 223 223 227 229 228
256 271 240 221 251 262 244 222 217 199 190 172 170 178 171 143 125 112 105 79 83 10 322 340 316 292 288 282 271 282 282 275 267 267 265 259 270 272 253 251 247 242 235 235 225 228 228 227 236
215 215 229 244 248 250 273 260 4 159 155 166 178 183 165 150 153 145 124 66 23 3 351 342 331 322 308 290 281 282 278 276 275 267 269 269 269 273 255 246 241 239 235 232 227 230 229 229 235
250 240 213 227 252 244 259 265 350 54 77 108 125 131 139 147 151 147 128 77 26 354 345 347 338 330 312 297 295 291 287 278 275 272 276 284 280 283 282 265 248 246 241 231 228 237 237 234 233
Height
1490 1491 1494 1496 1497 1497 1492 1480 1473 1475 1478 1481 1483 1484 1486 1491 1495 1505 1505 1503 1503 1503 1503 1504 1505 1506 1507 1507 1508 1509 1510 1511 1512 1513 1514 1515 1516 1517 1518 1519 1520 1521 1522 1523 1524 1525 1525 1526 1526
1490 1492 1495 1495 1497 1498 1488 1478 1477 1478 1481 1483 1485 1487 1488 1493 1497 1500 1501 1502 1503 1503 1503 1504 1505 1506 1507 1507 1508 1509 1510 1511 1512 1513 1514 1515 1516 1517 1518 1519 1520 1521 1522 1523 1524 1525 1526 1527 1527
1490 1492 1495 1493 1492 1491 1484 1478 1478 1480 1483 1485 1488 1490 1493 1497 1499 1500 1501 1502 1502 1503 1503 1504 1505 1505 1506 1507 1508 1509 1510 1511 1512 1513 1514 1515 1516 1517 1518 1519 1520 1521 1522 1523 1524 1525 1526 1527 1528
1492 1494 1494 1493 1489 1482 1479 1479 1480 1482 1485 1487 1489 1492 1496 1499 1500 1500 1501 1502 1502 1502 1503 1504 1504 1505 1506 1506 1507 1508 1509 1510 1511 1512 1513 1514 1515 1516 1517 1519 1520 1521 1522 1523 1524 1525 1526 1527 1528
1492 1493 1493 1491 1486 1479 1478 1479 1482 1484 1486 1488 1490 1493 1497 1499 1499 1500 1500 1501 1502 1502 1503 1503 1504 1505 1505 1506 1507 1508 1509 1510 1511 1512 1513 1514 1515 1516 1517 1518 1519 1521 1522 1523 1524 1525 1526 1527 1528
1493 1490 1493 1491 1483 1478 1478 1480 1483 1485 1486 1488 1490 1493 1498 1499 1499 1499 1500 1501 1501 1502 1502 1503 1504 1504 1505 1505 1506 1507 1508 1509 1510 1511 1512 1513 1514 1515 1516 1517 1518 1520 1521 1522 1523 1524 1525 1526 1527
1493 1490 1490 1484 1482 1479 1480 1482 1484 1486 1487 1490 1491 1493 1497 1498 1499 1499 1500 1501 1501 1501 1501 1502 1503 1503 1504 1504 1505 1506 1507 1508 1509 1510 1511 1512 1512 1513 1514 1515 1517 1518 1520 1521 1522 1523 1525 1526 1527
1490 1489 1486 1483 1482 1481 1482 1483 1485 1487 1489 1491 1492 1493 1496 1497 1497 1498 1499 1499 1500 1500 1501 1501 1502 1502 1503 1503 1503 1504 1505 1506 1507 1508 1510 1511 1511 1512 1513 1514 1515 1517 1518 1520 1521 1522 1524 1525 1526
1490 1492 1489 1484 1482 1482 1483 1484 1487 1488 1490 1491 1492 1493 1495 1496 1496 1497 1498 1498 1499 1499 1499 1500 1500 1501 1501 1502 1503 1503 1504 1505 1506 1507 1508 1509 1510 1510 1512 1513 1514 1515 1517 1518 1520 1521 1522 1524 1525
1490 1491 1486 1483 1482 1482 1484 1486 1487 1489 1490 1492 1493 1493 1494 1495 1495 1496 1496 1496 1497 1497 1498 1498 1499 1499 1500 1501 1502 1502 1503 1503 1504 1505 1506 1507 1508 1509 1510 1511 1513 1514 1515 1517 1518 1519 1521 1522 1523
1487 1487 1484 1483 1483 1484 1485 1487 1488 1489 1490 1491 1492 1492 1493 1494 1494 1495 1495 1496 1496 1496 1496 1497 1497 1498 1499 1500 1500 1501 1502 1502 1503 1503 1504 1505 1506 1507 1508 1510 1511 1513 1514 1515 1516 1518 1519 1520 1521
1485 1484 1484 1484 1485 1486 1487 1488 1488 1489 1490 1490 1490 1491 1492 1493 1493 1494 1494 1494 1495 1494 1494 1495 1496 1497 1498 1498 1499 1499 1500 1500 1501 1502 1503 1504 1504 1505 1506 1508 1509 1511 1512 1513 1514 1516 1517 1519 1520
1484 1484 1484 1484 1485 1486 1487 1488 1489 1488 1489 1489 1490 1491 1491 1492 1492 1493 1493 1493 1493 1493 1493 1493 1494 1495 1496 1497 1497 1498 1498 1499 1499 1500 1501 1501 1502 1503 1504 1506 1507 1508 1510 1511 1512 1514 1515 1517 1518
1483 1484 1484 1484 1485 1486 1486 1486 1487 1486 1487 1488 1488 1489 1490 1491 1491 1491 1491 1491 1491 1491 1492 1492 1493 1494 1494 1495 1496 1496 1496 1497 1497 1498 1499 1499 1500 1501 1502 1504 1505 1506 1507 1509 1510 1512 1513 1515 1516
1484 1484 1483 1482 1483 1484 1486 1485 1483 1483 1485 1486 1487 1488 1488 1489 1489 1489 1489 1489 1490 1490 1490 1490 1491 1492 1493 1493 1494 1494 1495 1495 1496 1496 1497 1498 1498 1499 1500 1502 1503 1504 1505 1506 1508 1510 1511 1512 1514
1483 1484 1483 1478 1479 1481 1487 1485 1480 1481 1483 1484 1485 1486 1487 1487 1487 1487 1487 1488 1488 1488 1488 1488 1489 1490 1491 1491 1492 1492 1493 1493 1494 1495 1495 1496 1496 1497 1498 1499 1500 1501 1503 1504 1506 1507 1508 1510 1511
1482 1483 1479 1477 1475 1478 1482 1482 1479 1480 1481 1482 1483 1484 1485 1485 1485 1486 1485 1485 1486 1486 1486 1486 1487 1487 1488 1489 1490 1490 1491 1492 1492 1493 1493 1494 1495 1496 1496 1497 1498 1499 1500 1502 1503 1504 1505 1507 1508
1482 1480 1477 1476 1474 1477 1479 1479 1478 1478 1479 1480 1481 1482 1483 1483 1484 1484 1484 1484 1484 1484 1484 1484 1485 1486 1486 1487 1488 1488 1489 1490 1490 1490 1491 1492 1493 1494 1495 1495 1496 1497 1498 1499 1500 1502 1503 1504 1506
1478 1479 1479 1475 1473 1476 1478 1477 1476 1476 1477 1477 1478 1479 1480 1481 1482 1483 1483 1483 1483 1482 1482 1483 1483 1484 1484 1485 1485 1486 1486 1487 1488 1489 1490 1490 1491 1492 1493 1493 1494 1495 1496 1497 1498 1499 1501 1501 1503
1477 1480 1479 1476 1474 1476 1477 1475 1472 1472 1472 1473 1474 1476 1478 1479 1480 1480 1481 1481 1481 1481 1481 1481 1481 1482 1482 1483 1484 1484 1485 1486 1486 1487 1488 1488 1489 1490 1490 1491 1491 1492 1493 1494 1496 1497 1498 1499 1500
1476 1478 1478 1478 1477 1475 1477 1475 1469 1467 1468 1470 1472 1473 1475 1477 1478 1479 1480 1479 1479 1479 1480 1480 1480 1480 1481 1481 1482 1482 1483 1483 1484 1485 1485 1486 1487 1487 1488 1488 1489 1490 1490 1491 1493 1494 1495 1496 1497
1477 1474 1475 1476 1482 1481 1477 1481 1467 1465 1466 1467 1470 1472 1474 1475 1477 1477 1478 1478 1478 1478 1478 1478 1478 1478 1479 1479 1479 1480 1480 1480 1481 1482 1483 1484 1484 1485 1485 1486 1486 1487 1488 1489 1490 1491 1492 1493 1494
1475 1474 1475 1476 1479 1481 1477 1480 1469 1463 1465 1466 1468 1470 1472 1474 1475 1476 1476 1477 1477 1477 1477 1477 1477 1476 1477 1477 1477 1477 1477 1478 1479 1480 1481 1481 1482 1482 1482 1483 1483 1483 1484 1485 1486 1487 1488 1490 1491
1475 1476 1475 1475 1479 1484 1474 1476 1468 1463 1461 1463 1466 1468 1470 1472 1474 1475 1475 1476 1476 1475 1475 1475 1475 1475 1475 1475 1475 1475 1475 1475 1476 1477 1477 1478 1478 1479 1479 1480 1480 1480 1481 1482 1483 1484 1485 1486 1488
1477 1481 1484 1483 1484 1477 1464 1467 1467 1459 1458 1460 1463 1466 1469 1471 1472 1473 1474 1474 1474 1473 1473 1473 1473 1473 1473 1473 1473 1473 1473 1473 1473 1473 1474 1475 1475 1475 1476 1476 1477 1477 1478 1479 1480 1480 1482 1483 1484
1476 1477 1484 1484 1477 1469 1463 1465 1463 1458 1457 1459 1462 1465 1468 1470 1471 1471 1472 1472 1472 1471 1471 1471 1471 1471 1470 1470 1470 1470 1470 1470 1470 1471 1471 1471 1471 1471 1472 1472 1473 1474 1475 1475 1476 1477 1478 1479 1480
1475 1476 1473 1478 1475 1476 1467 1461 1460 1457 1458 1460 1463 1465 1467 1468 1469 1470 1470 1470 1470 1469 1469 1469 1469 1468 1468 1468 1468 1467 1467 1467 1467 1467 1467 1467 1467 1468 1468 1469 1470 1470 1471 1472 1472 1473 1474 1475 1476
1474 1474 1476 1478 1478 1473 1461 1458 1461 1459 1458 1460 1462 1464 1465 1466 1467 1468 1468 1468 1468 1468 1467 1467 1467 1466 1466 1465 1465 1464 1464 1464 1464 1464 1464 1464 1464 1464 1464 1465 1466 1466 1467 1468 1468 1469 1470 1471 1472
1475 1475 1474 1474 1473 1473 1469 1465 1455 1456 1456 1458 1460 1462 1463 1465 1466 1466 1466 1466 1466 1466 1465 1465 1464 1463 1463 1462 1462 1461 1461 1460 1460 1460 1460 1460 1460 1460 1460 1461 1461 1462 1462 1463 1464 1464 1465 1466 1467
1471 1471 1473 1478 1474 1469 1470 1469 1457 1456 1456 1457 1459 1461 1462 1463 1464 1465 1465 1464 1464 1463 1463 1462 1461 1460 1460 1459 1459 1458 1457 1457 1457 1456 1456 1457 1457 1457 1457 1457 1458 1458 1458 1459 1460 1460 1461 1462 1462